Broken Bow, NE

2:58 PM CST on November 22, 2019 (GMT -0600)
Broken Bow Municipal

Weather History for KBBW - October, 2019

Change the Weather History Date:

Sunday, October 20, 2019

  Actual Average Record
Temperature  
Mean Temperature 48 °F 48 °F  
Max Temperature 63 °F 61 °F 94 °F (1947)
Min Temperature 32 °F 35 °F 10 °F (1989)
Degree Days  
Heating Degree Days 17 17  
Month to date heating degree days 345 275  
Cooling Degree Days 0 0  
Month to date cooling degree days 0 2  
Year to date cooling degree days 839 764  
Moisture  
Dew Point 32 °F    
Average Humidity 52    
Maximum Humidity 82    
Minimum Humidity 22    
Precipitation  
Precipitation 0.00 in 0.06 in 0.60 in (1920)
Sea Level Pressure  
Sea Level Pressure 29.57 in    
Wind  
Wind Speed 13 mph (South)    
Max Wind Speed 30 mph    
Max Gust Speed 45 mph    
Visibility 10 miles    
Events      
T = Trace of Precipitation, MM = Missing Value Source: NWS Daily Summary

Daily Weather History Graph

Daily Weather History Graph

Search for Another Location

Airport or City:

Astronomy

Oct. 20, 2019 Rise Set
Actual Time 7:55 AM CDT 6:50 PM CDT
Civil Twilight 7:27 AM CDT 7:18 PM CDT
Nautical Twilight 6:55 AM CDT 7:50 PM CDT
Astronomical Twilight 6:23 AM CDT 8:22 PM CDT
Moon 11:58 PM CDT (10/20) 2:28 PM CDT (10/20)
Length of Visible Light 11h 50m
Length of Day
10h 54m
Waning Gibbous, 59% of the Moon is Illuminated
Oct 20
Waning Gibbous
Oct 21
Last Quarter
Oct 27
New
Nov 4
First Quarter
Nov 12
Full

Hourly Weather History & Observations

Time (CDT) Temp. Windchill Dew Point Humidity Pressure Visibility Wind Dir Wind Speed Gust Speed Precip Events Conditions
12:53 AM 33.1 °F 30.0 °F 28.0 °F 82% 29.71 in 10.0 mi East 3.5 mph - N/A   Clear
1:53 AM 41.0 °F 36.4 °F 30.0 °F 65% 29.68 in 10.0 mi SE 6.9 mph - N/A   Clear
2:53 AM 44.1 °F 40.1 °F 34.0 °F 68% 29.66 in 10.0 mi ESE 6.9 mph - N/A   Clear
3:53 AM 44.1 °F 40.1 °F 35.1 °F 71% 29.63 in 10.0 mi SE 6.9 mph - N/A   Clear
4:53 AM 45.0 °F 41.2 °F 36.0 °F 71% 29.60 in 10.0 mi SE 6.9 mph - N/A   Scattered Clouds
5:53 AM 46.9 °F - 35.1 °F 63% 29.58 in 10.0 mi SE 9.2 mph - N/A   Clear
6:53 AM 46.9 °F - 35.1 °F 63% 29.59 in 10.0 mi SE 11.5 mph - N/A   Clear
7:53 AM 50.0 °F - 35.1 °F 57% 29.58 in 10.0 mi SE 15.0 mph 24.2 mph N/A   Clear
8:53 AM 51.1 °F - 36.0 °F 56% 29.61 in 10.0 mi SSE 11.5 mph 25.3 mph N/A   Partly Cloudy
9:53 AM 54.0 °F - 37.0 °F 53% 29.60 in 10.0 mi SSE 15.0 mph 25.3 mph N/A   Clear
10:53 AM 55.9 °F - 37.9 °F 51% 29.60 in 10.0 mi South 20.7 mph 32.2 mph N/A   Scattered Clouds
11:53 AM 59.0 °F - 39.0 °F 48% 29.58 in 10.0 mi South 17.3 mph 29.9 mph N/A   Scattered Clouds
12:53 PM 57.9 °F - 35.1 °F 42% 29.57 in 10.0 mi SSW 17.3 mph - N/A   Partly Cloudy
1:53 PM 60.1 °F - 30.0 °F 32% 29.52 in 10.0 mi WSW 11.5 mph - N/A   Clear
2:53 PM 61.0 °F - 25.0 °F 25% 29.51 in 10.0 mi North - - N/A   Clear
3:53 PM 61.0 °F - 21.9 °F 22% 29.49 in 10.0 mi SSW 15.0 mph - N/A   Scattered Clouds
4:53 PM 55.0 °F - 25.0 °F 31% 29.53 in 10.0 mi WSW 17.3 mph 25.3 mph N/A   Mostly Cloudy
5:53 PM 55.9 °F - 24.1 °F 29% 29.51 in 10.0 mi South 10.4 mph - N/A   Clear
6:53 PM 51.1 °F - 26.1 °F 38% 29.51 in 10.0 mi SSE 6.9 mph - N/A   Scattered Clouds
7:53 PM 50.0 °F - 30.0 °F 46% 29.51 in 10.0 mi SW 15.0 mph - N/A   Clear
8:53 PM 46.9 °F - 32.0 °F 56% 29.52 in 10.0 mi SW 8.1 mph - N/A   Clear
9:53 PM 46.9 °F - 34.0 °F 61% 29.51 in 10.0 mi SW 11.5 mph - N/A   Clear
10:53 PM 44.1 °F 37.1 °F 37.0 °F 76% 29.51 in 10.0 mi West 15.0 mph - N/A   Scattered Clouds
11:53 PM 42.1 °F 33.1 °F 36.0 °F 79% 29.50 in 10.0 mi West 20.7 mph 29.9 mph N/A   Mostly Cloudy